GLOBALSTAR M037 [-]

Last updated on Tue May 03 2016 23:39:15 GMT+0000 (Coordinated Universal Time)

1 25652U 99012D 16124.56160987 -.00000169 00000-0 -36475-3 0 9993 2 25652 52.0008 248.3496 0001444 29.6564 48.9951 12.62288320790576
UTC large
Height (km)
Speed (km/s)
/
Latitude / Longitude
Inclination (degrees)
Orbital Period (minutes)
Azimuth
Elevation
Range (km)
Doppler Factor

Next 0 passes for location: London (51.5072 / 0.1276)

Sorry there are no passes over London.